Weather History for KHKY - January, 2014

Change the Weather History Date:

Monday, January 20, 2014

  Actual Average Record
Temperature  
Mean Temperature 46 °F -  
Max Temperature 66 °F 46 °F 68 °F (1951)
Min Temperature 26 °F 26 °F -3 °F (1985)
Degree Days  
Heating Degree Days 19    
Moisture  
Dew Point 19 °F    
Average Humidity 39    
Maximum Humidity 81    
Minimum Humidity 16    
Precipitation  
Precipitation 0.00 in - - ()
Sea Level Pressure  
Sea Level Pressure 29.82 in    
Wind  
Wind Speed 5 mph (SW)    
Max Wind Speed 16 mph    
Max Gust Speed 17 mph    
Visibility 10 miles    
Events      
Averages and records for this station are not official NWS values.
T = Trace of Precipitation, MM = Missing Value Source: NWS Daily Summary

Daily Weather History Graph

Daily Weather History Graph

Search for Another Location

Airport or City:

Trip Planner

Search our weather history database for the weather conditions in past years. The results will help you decide how hot, cold, wet, or windy it might be!

Date:

Astronomy

Jan. 20, 2014 Rise Set
Actual Time 7:33 AM EST 5:40 PM EST
Civil Twilight 7:05 AM EST 6:08 PM EST
Nautical Twilight 6:34 AM EST 6:39 PM EST
Astronomical Twilight 6:03 AM EST 7:09 PM EST
Moon 10:03 PM EST (1/20) 9:41 AM EST (1/20)
Length of Visible Light 11h 02m
Length of Day
10h 07m
Waning Gibbous, 83% of the Moon is Illuminated
Jan 20
Waning Gibbous
Jan 24
Last Quarter
Jan 30
New
Feb 6
First Quarter
Feb 14
Full

Hourly Weather History & Observations

Time (EST) Temp. Windchill Dew Point Humidity Pressure Visibility Wind Dir Wind Speed Gust Speed Precip Events Conditions
12:53 AM 34.0 °F 31.0 °F 19.0 °F 54% 29.87 in 10.0 mi South 3.5 mph - N/A   Clear
1:53 AM 35.1 °F 30.1 °F 19.0 °F 52% 29.85 in 10.0 mi SSW 5.8 mph - N/A   Clear
2:53 AM 28.0 °F 24.2 °F 21.0 °F 75% 29.86 in 10.0 mi ESE 3.5 mph - N/A   Clear
3:53 AM 32.0 °F - 19.0 °F 59% 29.85 in 10.0 mi Calm Calm - N/A   Clear
4:53 AM 26.1 °F 21.9 °F 19.0 °F 75% 29.85 in 10.0 mi Variable 3.5 mph - N/A   Clear
5:53 AM 27.0 °F 23.0 °F 18.0 °F 69% 29.85 in 10.0 mi South 3.5 mph - N/A   Clear
6:53 AM 26.1 °F - 21.0 °F 81% 29.86 in 10.0 mi Calm Calm - N/A   Clear
7:53 AM 35.1 °F 27.4 °F 16.0 °F 46% 29.84 in 10.0 mi WSW 10.4 mph - N/A   Clear
8:53 AM 37.9 °F 35.5 °F 19.9 °F 48% 29.85 in 10.0 mi SSW 3.5 mph - N/A   Clear
9:53 AM 53.1 °F - 18.0 °F 25% 29.85 in 10.0 mi SW 11.5 mph - N/A   Clear
10:53 AM 57.0 °F - 19.0 °F 23% 29.84 in 10.0 mi WSW 16.1 mph - N/A   Clear
11:53 AM 57.9 °F - 12.0 °F 16% 29.82 in 10.0 mi South 9.2 mph - N/A   Clear
12:53 PM 61.0 °F - 17.1 °F 18% 29.79 in 10.0 mi SW 9.2 mph - N/A   Clear
1:53 PM 64.0 °F - 19.0 °F 18% 29.76 in 10.0 mi West 12.7 mph 17.3 mph N/A   Clear
2:53 PM 66.0 °F - 19.0 °F 17% 29.76 in 10.0 mi West 12.7 mph - N/A   Clear
3:53 PM 66.0 °F - 18.0 °F 16% 29.76 in 10.0 mi West 8.1 mph - N/A   Clear
4:53 PM 64.0 °F - 17.1 °F 16% 29.78 in 10.0 mi West 10.4 mph - N/A   Clear
5:53 PM 57.9 °F - 21.0 °F 24% 29.80 in 10.0 mi Calm Calm - N/A   Clear
6:53 PM 57.0 °F - 21.9 °F 26% 29.81 in 10.0 mi Calm Calm - N/A   Clear
7:53 PM 55.9 °F - 21.9 °F 27% 29.81 in 10.0 mi Calm Calm - N/A   Clear
8:53 PM 54.0 °F - 23.0 °F 30% 29.81 in 10.0 mi Calm Calm - N/A   Clear
9:53 PM 50.0 °F - 23.0 °F 35% 29.79 in 10.0 mi Calm Calm - N/A   Clear
10:53 PM 44.1 °F - 23.0 °F 43% 29.78 in 10.0 mi Calm Calm - N/A   Clear
11:53 PM 39.0 °F - 23.0 °F 53% 29.76 in 10.0 mi Calm Calm - N/A   Clear